Progress Software Return on Tangible Equity 2010-2024 | PRGS

Current and historical return on tangible equity values for Progress Software (PRGS) over the last 10 years. Return on tangible equity can be defined as the amount of net income returned as a percentage of shareholders equity, after subtracting intangible assets, goodwill and preferred equity.
Progress Software Return On Tangible Equity Historical Data
Date TTM Net Income Tangible Equity Return on Tangible Equity
2024-02-29 $0.07B $-0.70B -9.21%
2023-11-30 $0.07B $-0.73B -8.92%
2023-08-31 $0.08B $-0.76B -10.89%
2023-05-31 $0.08B $-0.81B -12.24%
2023-02-28 $0.10B $-0.84B -16.36%
2022-11-30 $0.10B $-0.49B -17.61%
2022-08-31 $0.09B $-0.54B -15.54%
2022-05-31 $0.10B $-0.55B -19.50%
2022-02-28 $0.08B $-0.58B -18.68%
2021-11-30 $0.08B $-0.55B -21.38%
2021-08-31 $0.08B $-0.27B -25.43%
2021-05-31 $0.08B $-0.32B -25.82%
2021-02-28 $0.08B $-0.34B -30.44%
2020-11-30 $0.08B $-0.36B -36.28%
2020-08-31 $0.06B $-0.15B -31.40%
2020-05-31 $0.05B $-0.18B -23.04%
2020-02-29 $0.04B $-0.20B -16.81%
2019-11-30 $0.03B $-0.20B -13.59%
2019-08-31 $0.04B $-0.24B -26.10%
2019-05-31 $0.04B $-0.27B -35.24%
2019-02-28 $0.05B $-0.06B -67.16%
2018-11-30 $0.05B $-0.05B -76.34%
2018-08-31 $0.05B $-0.08B -79.67%
2018-05-31 $0.05B $-0.08B -94.36%
2018-02-28 $0.04B $-0.05B -175.51%
2017-11-30 $0.03B $-0.03B -1018.18%
2017-08-31 $-0.05B $-0.03B -304.23%
2017-05-31 $-0.06B $0.02B -170.15%
2017-02-28 $-0.06B $0.03B -170.21%
2016-11-30 $-0.06B $0.05B -146.41%
2016-08-31 $0.01B $0.04B 25.17%
2016-05-31 $-0.00B $0.02B -8.33%
2016-02-29 $-0.00B $0.05B -10.96%
2015-11-30 $-0.01B $0.04B -24.24%
2015-08-31 $0.02B $0.04B 15.63%
2015-05-31 $0.03B $0.02B 19.23%
2015-02-28 $0.04B $0.03B 16.97%
2014-11-30 $0.05B $0.29B 17.33%
2014-08-31 $0.05B $0.28B 17.86%
2014-05-31 $0.06B $0.27B 22.74%
2014-02-28 $0.06B $0.29B 18.97%
2013-11-30 $0.08B $0.28B 24.31%
2013-08-31 $0.10B $0.28B 28.19%
2013-05-31 $0.08B $0.31B 21.14%
2013-02-28 $0.07B $0.37B 18.95%
2012-11-30 $0.05B $0.41B 12.83%
2012-08-31 $0.02B $0.38B 6.75%
2012-05-31 $0.03B $0.35B 7.70%
2012-02-29 $0.05B $0.33B 13.06%
2011-11-30 $0.06B $0.30B 16.25%
2011-08-31 $0.07B $0.37B 17.92%
2011-05-31 $0.07B $0.41B 18.70%
2011-02-28 $0.07B $0.40B 20.54%
2010-11-30 $0.05B $0.37B 16.18%
2010-08-31 $0.04B $0.30B 16.43%
2010-05-31 $0.04B $0.29B 16.73%
2010-02-28 $0.03B $0.22B 13.27%
2009-11-30 $0.03B $0.25B 16.79%
Sector Industry Market Cap Revenue
Computer and Technology Computer Software $2.174B $0.694B
Progress offers the leading platform for developing and deploying mission-critical business applications. Progress empowers enterprises and ISVs to build and deliver cognitive-first applications that harness big data to derive business insights and competitive advantage. Progress offers leading technologies for easily building powerful user interfaces across any type of device, a reliable, scalable and secure backend platform to deploy modern applications, leading data connectivity to all sources, and award-winning predictive analytics that brings the power of machine learning to any organization.
Stock Name Country Market Cap PE Ratio
Microsoft (MSFT) United States $3197.081B 37.24
Oracle (ORCL) United States $337.818B 27.50
Salesforce (CRM) United States $263.577B 44.06
Adobe (ADBE) United States $212.993B 35.61
Intuit (INTU) United States $169.957B 52.87
Synopsys (SNPS) United States $89.579B 62.03
Cadence Design Systems (CDNS) United States $80.084B 76.24
Dassault Systemes SA (DASTY) France $56.134B 36.47
Autodesk (ADSK) United States $46.304B 45.24
MicroStrategy (MSTR) United States $29.884B 0.00
ANSYS (ANSS) United States $28.906B 53.49
PTC (PTC) United States $21.905B 58.10
SS&C Technologies Holdings (SSNC) United States $15.290B 14.48
Manhattan Associates (MANH) United States $14.046B 74.55
Descartes Systems Group (DSGX) Canada $8.546B 74.80
Open Text (OTEX) Canada $8.205B 8.26
Trend Micro (TMICY) Japan $6.572B 47.60
Pegasystems (PEGA) United States $5.096B 45.06
CommVault Systems (CVLT) United States $4.800B 78.44
Blackbaud (BLKB) United States $4.095B 35.25
ACI Worldwide (ACIW) United States $3.735B 17.89
Verint Systems (VRNT) United States $1.911B 17.81
Sapiens (SPNS) Israel $1.880B 25.64
BlackBerry (BB) Canada $1.700B 0.00
PROS Holdings (PRO) United States $1.465B 0.00
Simulations Plus (SLP) United States $0.996B 73.28
Rand Worldwide (RWWI) United States $0.652B 0.00
Magic Software Enterprises (MGIC) Israel $0.522B 11.08
American Software (AMSWA) United States $0.355B 29.72
Canaan (CAN) China $0.245B 0.00
OptimizeRx (OPRX) United States $0.236B 0.00
Rigetti Computing (RGTI) United States $0.184B 0.00
Icad Inc (ICAD) United States $0.042B 0.00
Neonode (NEON) Sweden $0.037B 0.00
NetSol Technologies (NTWK) United States $0.030B 0.00
Smith Micro Software (SMSI) United States $0.024B 0.00
Hanryu Holdings (HRYU) South Korea $0.021B 0.00
Wetouch Technology (WETH) $0.020B 0.00
GSE Systems (GVP) United States $0.011B 0.00
SAP SE (SAP) Germany $0.000B 49.97